Hourly Data Report for September 09, 2013

All times are specified in Local Standard Time (LST). Add 1 hour to adjust for Daylight Saving Time where and when it is observed.

PETAWAWA AWOS 2
ONTARIO

45°57'00.000" N
77°19'00.000" W
130.10 m
6106396
71625
YWA

Download Data

Hourly Data (September 2013)
Hourly Data Report for September 9, 2013
Temp Definition
°C
Dew Point Temp Definition
°C
Rel Hum Definition
%
Wind Dir Definition
10's deg

Wind Spd Definition
km/h
Visibility Definition
km
Stn Press Definition
kPa
Hmdx Definition


Wind Chill Definition


Weather Definition


TIME
00:00 6.4 5.7 95 29 4 15.0 100.43      
01:00 4.0 4.0 100 20 4 15.0 100.41      
02:00 3.8 3.6 99 20 4 15.0 100.40      
03:00 3.5 3.5 100   0 15.0 100.41      
04:00 3.4 3.4 100   0 15.0 100.42      
05:00 3.8 3.8 100 20 4 2.3 100.38      
06:00 3.9 3.9 100   0 4.0 100.39      
07:00 6.5 6.5 100   0 15.0 100.40      
08:00 11.4 9.8 90 11 4 15.0 100.38      
09:00 12.9 9.5 80 9 7 15.0 100.35      
10:00 15.0 10.4 74 9 9 15.0 100.32      
11:00 17.3 10.9 66   0 15.0 100.30      
12:00 19.8 8.5 48 20 15 15.0 100.27      
13:00 19.8 9.0 50 20 7 15.0 100.16      
14:00 20.5 9.6 50 18 11 15.0 100.09      
15:00 20.9 10.1 50 19 17 15.0 100.00      
16:00 20.5 8.6 46 18 11 15.0 99.97      
17:00 20.2 10.1 52 16 6 15.0 99.91      
18:00 19.1 9.2 53 13 6 15.0 99.86      
19:00 18.6 7.8 49 15 7 15.0 99.78      
20:00 17.4 7.8 53   0 15.0 99.82      
21:00 16.3 11.6 74   0 15.0 99.83      
22:00 17.1 11.6 70   0 15.0 99.95     Rain
23:00 13.9 12.7 92 18 4 11.3 100.07     Rain

Notes on Data Quality.

Legend

  • E = Estimated
  • M = Missing
  • NA = Not Available
  • ‡ = Partner data that is not subject to review by the National Climate Archives
Date modified: